Location: Hurstbourne Priors
(51.2000°N, 1.3667°W)
Time: 15:07:57
(UTC+00:00)

Vanguard 1 Rocket - All Passes

Search period start: 11 April 2021 00:00
Search period end: 21 April 2021 00:00
Orbit: 653 x 4223 km, 34.3° (Epoch: 10 April)

Date Brightness Start Highest point End Pass type
(mag) Time Alt. Az. Time Alt. Az. Time Alt. Az.
11 Apr - 18:25:56 10° SW 18:29:34 17° S 18:34:22 10° SE daylight
11 Apr - 20:50:24 10° SW 20:54:12 14° SSW 20:59:01 10° SSE visible
12 Apr - 17:16:23 10° SSW 17:19:00 14° S 17:22:08 10° SE daylight
12 Apr - 19:39:34 10° SW 19:43:09 15° S 19:47:46 10° SSE visible
13 Apr - 16:08:04 10° S 16:08:34 10° SSE 16:09:04 10° SSE daylight
13 Apr - 18:29:18 10° SW 18:32:20 15° S 18:36:07 10° SSE daylight
14 Apr - 17:19:27 10° SSW 17:21:45 13° S 17:24:22 10° SSE daylight
14 Apr - 19:44:14 10° SSW 19:45:56 11° SSW 19:47:50 10° S visible
15 Apr - 16:10:14 10° S 16:11:16 11° S 16:12:19 10° SSE daylight
15 Apr - 18:33:12 10° SSW 18:35:07 12° S 18:37:17 10° SSE daylight
16 Apr - 17:22:54 10° SSW 17:24:29 11° S 17:26:14 10° SSE daylight
17 Apr - 16:13:04 10° S 16:13:58 10° S 16:14:53 10° SSE daylight
